Orbital Elements at Epoch 2459000.5 (2020-May-31.0) TDB
Reference: JPL 4 (heliocentric ecliptic J2000)
Element | Value | Uncertainty (1-sigma) | Units |
e | .04152423883174301 | 9.8338e-08 | |
a | 2.791549505515252 | 4.4542e-08 | au |
q | 2.675632537137603 | 2.8053e-07 | au |
i | 3.433070559168535 | 1.0049e-05 | deg |
node | 342.3415736714294 | 0.00012172 | deg |
peri | 218.3024962718555 | 0.00015076 | deg |
M | 230.4490506837778 | 9.4628e-05 | deg |
tp | 2459613.562182450981 (2022-Feb-03.06218245) | 0.00045509 | TDB |
period | 1703.595279287677 4.66 | 4.0774e-05 1.116e-07 | d yr |
n | .2113177961789883 | 5.0577e-09 | deg/d |
Q | 2.907466473892901 | 4.6392e-08 | au |
|
| | Orbit Determination Parameters
Additional Information
|